RYR7UN EGPH-EVRA

Flight info

Callsign RYR7UN
Flight time 2h 14m
Altitude 37000
Route GRICE3C GRICE P600 ASNUD DCT ALOTI DCT RETKA DCT EVONA L73 TENSI TENSI2T
Aircraft B738/M-SDE2E3FGHIRWXY/LB1

Departure

Time 2026-05-07 15:58
Airport Edinburgh Airport (EGPH)

Arrival

Time 2026-05-07 18:13
Airport Riga International Airport (EVRA)
Time Latitude Longitude Altitude Speed Heading
2026-05-07 15:33 55.94895 -3.36000 115 ft 0 kts 254°
2026-05-07 15:34 55.94895 -3.35999 115 ft 0 kts 254°
2026-05-07 15:45 55.94895 -3.35998 115 ft 0 kts 254°
2026-05-07 15:49 55.94898 -3.35975 111 ft 4 kts 254°
2026-05-07 15:50 55.94903 -3.35944 111 ft 4 kts 254°
2026-05-07 15:50 55.94909 -3.35906 114 ft 2 kts 254°
2026-05-07 15:50 55.94915 -3.35862 112 ft 4 kts 259°
2026-05-07 15:50 55.94917 -3.35815 112 ft 4 kts 286°
2026-05-07 15:51 55.94913 -3.35797 111 ft 2 kts 298°
2026-05-07 15:53 55.94913 -3.35796 111 ft 0 kts 298°
2026-05-07 15:53 55.94913 -3.35797 111 ft 0 kts 298°
2026-05-07 15:54 55.94919 -3.35814 112 ft 3 kts 299°
2026-05-07 15:54 55.94942 -3.35855 114 ft 6 kts 332°
2026-05-07 15:54 55.94994 -3.35848 112 ft 9 kts 26°
2026-05-07 15:54 55.95053 -3.35792 115 ft 9 kts 28°
2026-05-07 15:55 55.95109 -3.35832 115 ft 11 kts 302°
2026-05-07 15:55 55.95156 -3.35934 115 ft 12 kts 328°
2026-05-07 15:55 55.95223 -3.35985 115 ft 10 kts 13°
2026-05-07 15:55 55.95270 -3.35878 111 ft 13 kts 59°
2026-05-07 15:56 55.95320 -3.35730 115 ft 15 kts 59°
2026-05-07 15:56 55.95379 -3.35555 114 ft 18 kts 58°
2026-05-07 15:56 55.95429 -3.35415 113 ft 9 kts 44°
2026-05-07 15:56 55.95494 -3.35432 114 ft 12 kts 328°
2026-05-07 15:57 55.95564 -3.35509 111 ft 7 kts 322°
2026-05-07 15:57 55.95559 -3.35598 112 ft 9 kts 239°
2026-05-07 15:57 55.95445 -3.35937 109 ft 66 kts 238°
2026-05-07 15:57 55.95099 -3.36958 111 ft 127 kts 239°
2026-05-07 15:58 55.94566 -3.38522 397 ft 155 kts 238°
2026-05-07 15:58 55.94017 -3.40162 1261 ft 154 kts 238°
2026-05-07 15:58 55.93440 -3.41860 1877 ft 169 kts 236°
2026-05-07 15:58 55.92785 -3.43763 2265 ft 189 kts 236°
2026-05-07 15:59 55.92051 -3.45873 2537 ft 212 kts 236°
2026-05-07 15:59 55.91219 -3.48265 2751 ft 241 kts 237°
2026-05-07 15:59 55.90344 -3.50848 3548 ft 243 kts 241°
2026-05-07 15:59 55.89964 -3.53790 4424 ft 253 kts 269°
2026-05-07 16:00 55.90444 -3.56879 5183 ft 267 kts 295°
2026-05-07 16:00 55.91675 -3.59414 6034 ft 278 kts 321°
2026-05-07 16:00 55.93492 -3.60762 6680 ft 296 kts 352°
2026-05-07 16:00 55.95541 -3.60158 7332 ft 306 kts 28°
2026-05-07 16:01 55.97279 -3.58085 8330 ft 300 kts 30°
2026-05-07 16:01 55.99186 -3.56646 9092 ft 300 kts 12°
2026-05-07 16:01 56.01262 -3.56615 9795 ft 297 kts 344°
2026-05-07 16:01 56.03241 -3.57704 10402 ft 303 kts 337°
2026-05-07 16:02 56.05248 -3.59028 10566 ft 325 kts 336°
2026-05-07 16:02 56.07420 -3.60508 10904 ft 340 kts 336°
2026-05-07 16:02 56.09659 -3.62013 11536 ft 346 kts 336°
2026-05-07 16:02 56.11929 -3.63506 12261 ft 349 kts 336°
2026-05-07 16:03 56.14223 -3.64997 12970 ft 352 kts 336°
2026-05-07 16:03 56.16536 -3.66492 13655 ft 356 kts 338°
2026-05-07 16:03 56.19017 -3.67242 14216 ft 370 kts
2026-05-07 16:03 56.21534 -3.66122 14822 ft 378 kts 25°
2026-05-07 16:04 56.23767 -3.63580 15458 ft 382 kts 36°
2026-05-07 16:04 56.25907 -3.60711 16088 ft 386 kts 37°
2026-05-07 16:04 56.28067 -3.57810 16708 ft 389 kts 37°
2026-05-07 16:04 56.30265 -3.54919 17325 ft 392 kts 37°
2026-05-07 16:05 56.32488 -3.52049 17972 ft 394 kts 36°
2026-05-07 16:05 56.34707 -3.49196 18497 ft 398 kts 36°
2026-05-07 16:05 56.36971 -3.46275 18989 ft 402 kts 36°
2026-05-07 16:05 56.39254 -3.43324 19469 ft 405 kts 36°
2026-05-07 16:06 56.41549 -3.40348 20006 ft 408 kts 36°
2026-05-07 16:06 56.43859 -3.37345 20516 ft 411 kts 36°
2026-05-07 16:06 56.46206 -3.34353 21001 ft 415 kts 35°
2026-05-07 16:06 56.48601 -3.31387 21482 ft 418 kts 34°
2026-05-07 16:07 56.51019 -3.28419 21964 ft 421 kts 34°
2026-05-07 16:07 56.53457 -3.25423 22445 ft 425 kts 34°
2026-05-07 16:07 56.55914 -3.22390 22828 ft 430 kts 34°
2026-05-07 16:07 56.58395 -3.19314 23266 ft 434 kts 34°
2026-05-07 16:08 56.60887 -3.16216 23696 ft 436 kts 34°
2026-05-07 16:08 56.63398 -3.13086 24100 ft 438 kts 34°
2026-05-07 16:08 56.65905 -3.09939 24497 ft 440 kts 36°
2026-05-07 16:08 56.68204 -3.06255 24861 ft 442 kts 50°
2026-05-07 16:09 56.70057 -3.01816 25251 ft 441 kts 61°
2026-05-07 16:09 56.71433 -2.96829 25622 ft 440 kts 71°
2026-05-07 16:09 56.72543 -2.91631 25984 ft 442 kts 72°
2026-05-07 16:09 56.73626 -2.86379 26372 ft 443 kts 72°
2026-05-07 16:10 56.74702 -2.81114 26767 ft 444 kts 72°
2026-05-07 16:10 56.75790 -2.75824 27099 ft 447 kts 72°
2026-05-07 16:10 56.76890 -2.70516 27421 ft 450 kts 72°
2026-05-07 16:10 56.78005 -2.65174 27766 ft 452 kts 71°
2026-05-07 16:11 56.79130 -2.59804 28108 ft 454 kts 71°
2026-05-07 16:11 56.80262 -2.54414 28439 ft 456 kts 71°
2026-05-07 16:11 56.81399 -2.48994 28751 ft 458 kts 71°
2026-05-07 16:11 56.82540 -2.43547 28987 ft 462 kts 72°
2026-05-07 16:12 56.83693 -2.38021 29137 ft 468 kts 72°
2026-05-07 16:12 56.84851 -2.32453 29423 ft 469 kts 71°
2026-05-07 16:12 56.86006 -2.26891 29904 ft 467 kts 71°
2026-05-07 16:12 56.87156 -2.21338 30178 ft 468 kts 71°
2026-05-07 16:13 56.88296 -2.15811 30359 ft 471 kts 72°
2026-05-07 16:13 56.89454 -2.10184 30547 ft 473 kts 72°
2026-05-07 16:13 56.90612 -2.04538 30769 ft 475 kts 72°
2026-05-07 16:13 56.91729 -1.99079 31005 ft 476 kts 72°
2026-05-07 16:14 56.92887 -1.93406 31227 ft 477 kts 72°
2026-05-07 16:14 56.94046 -1.87709 31474 ft 477 kts 72°
2026-05-07 16:14 56.95204 -1.82003 31790 ft 476 kts 72°
2026-05-07 16:14 56.96357 -1.76310 32110 ft 475 kts 72°
2026-05-07 16:15 56.97499 -1.70648 32450 ft 472 kts 72°
2026-05-07 16:15 56.98616 -1.65100 32808 ft 470 kts 72°
2026-05-07 16:15 56.99745 -1.59475 33075 ft 470 kts 72°
2026-05-07 16:15 57.00866 -1.53867 33285 ft 470 kts 73°
2026-05-07 16:16 57.01989 -1.48234 33530 ft 470 kts 73°
2026-05-07 16:16 57.03111 -1.42589 33812 ft 469 kts 73°
2026-05-07 16:16 57.04240 -1.36900 34091 ft 468 kts 73°
2026-05-07 16:16 57.05337 -1.31351 34284 ft 468 kts 73°
2026-05-07 16:17 57.06448 -1.25716 34454 ft 469 kts 73°
2026-05-07 16:17 57.07555 -1.20088 34649 ft 468 kts 73°
2026-05-07 16:17 57.08660 -1.14451 34860 ft 467 kts 73°
2026-05-07 16:17 57.09757 -1.08838 35106 ft 466 kts 72°
2026-05-07 16:18 57.10849 -1.03235 35296 ft 466 kts 73°
2026-05-07 16:18 57.13012 -0.92085 35381 ft 473 kts 73°
2026-05-07 16:18 57.14116 -0.86372 35546 ft 473 kts 73°
2026-05-07 16:19 57.15216 -0.80663 35786 ft 472 kts 73°
2026-05-07 16:19 57.16310 -0.74971 35986 ft 471 kts 73°
2026-05-07 16:19 57.17399 -0.69288 36153 ft 471 kts 73°
2026-05-07 16:19 57.18489 -0.63581 36268 ft 472 kts 73°
2026-05-07 16:20 57.19575 -0.57875 36419 ft 472 kts 73°
2026-05-07 16:20 57.20661 -0.52153 36593 ft 472 kts 73°
2026-05-07 16:20 57.21742 -0.46442 36774 ft 471 kts 73°
2026-05-07 16:20 57.22819 -0.40735 36910 ft 471 kts 73°
2026-05-07 16:21 57.23897 -0.35002 36997 ft 473 kts 73°
2026-05-07 16:21 57.26051 -0.23500 37005 ft 474 kts 73°
2026-05-07 16:22 57.28189 -0.12017 37005 ft 472 kts 73°
2026-05-07 16:22 57.30312 -0.00549 36997 ft 470 kts 73°
2026-05-07 16:23 57.32376 0.10675 37011 ft 468 kts 73°
2026-05-07 16:23 57.34457 0.22056 37009 ft 466 kts 73°
2026-05-07 16:24 57.36525 0.33439 37026 ft 466 kts 73°
2026-05-07 16:24 57.38581 0.44824 37033 ft 466 kts 73°
2026-05-07 16:25 57.40630 0.56245 37034 ft 467 kts 73°
2026-05-07 16:25 57.42676 0.67715 37029 ft 469 kts 73°
2026-05-07 16:26 57.44718 0.79235 37045 ft 471 kts 73°
2026-05-07 16:26 57.46758 0.90815 37044 ft 473 kts 73°
2026-05-07 16:27 57.48765 1.02281 37047 ft 474 kts 74°
2026-05-07 16:27 57.50658 1.13162 37043 ft 476 kts 74°
2026-05-07 16:28 57.52345 1.22913 37044 ft 476 kts 73°
2026-05-07 16:28 57.54363 1.34649 37055 ft 476 kts 73°
2026-05-07 16:29 57.56361 1.46340 37059 ft 476 kts 74°
2026-05-07 16:29 57.58353 1.58075 37054 ft 474 kts 74°
2026-05-07 16:30 57.60328 1.69784 37067 ft 473 kts 74°
2026-05-07 16:30 57.62288 1.81481 37051 ft 471 kts 74°
2026-05-07 16:31 57.64227 1.93132 37076 ft 470 kts 74°
2026-05-07 16:31 57.66053 2.04172 37076 ft 469 kts 74°
2026-05-07 16:32 57.67968 2.15828 37079 ft 469 kts 74°
2026-05-07 16:32 57.69874 2.27505 37075 ft 470 kts 74°
2026-05-07 16:33 57.71772 2.39213 37082 ft 471 kts 74°
2026-05-07 16:33 57.73662 2.50955 37083 ft 472 kts 74°
2026-05-07 16:34 57.75558 2.62805 37093 ft 473 kts 74°
2026-05-07 16:34 57.77423 2.74545 37092 ft 474 kts 75°
2026-05-07 16:35 57.79292 2.86397 37088 ft 474 kts 75°
2026-05-07 16:35 57.81154 2.98280 37097 ft 475 kts 75°
2026-05-07 16:36 57.82979 3.10010 37098 ft 475 kts 75°
2026-05-07 16:36 57.84820 3.21916 37100 ft 475 kts 75°
2026-05-07 16:37 57.86649 3.33836 37096 ft 474 kts 75°
2026-05-07 16:37 57.88463 3.45724 37119 ft 473 kts 75°
2026-05-07 16:38 57.90254 3.57564 37113 ft 473 kts 76°
2026-05-07 16:38 57.91218 3.69735 37112 ft 470 kts 88°
2026-05-07 16:39 57.91593 3.82024 37103 ft 470 kts 88°
2026-05-07 16:39 57.91958 3.94303 37110 ft 470 kts 88°
2026-05-07 16:40 57.92348 4.06385 37117 ft 471 kts 88°
2026-05-07 16:40 57.92756 4.18686 37116 ft 471 kts 88°
2026-05-07 16:41 57.93157 4.30990 37110 ft 471 kts 88°
2026-05-07 16:41 57.93544 4.43294 37120 ft 471 kts 88°
2026-05-07 16:42 57.93919 4.55619 37119 ft 471 kts 88°
2026-05-07 16:42 57.94282 4.67958 37119 ft 472 kts 88°
2026-05-07 16:43 57.94632 4.80297 37114 ft 472 kts 88°
2026-05-07 16:43 57.94971 4.92646 37114 ft 472 kts 88°
2026-05-07 16:44 57.95292 5.04758 37118 ft 471 kts 88°
2026-05-07 16:44 57.95607 5.17075 37124 ft 471 kts 88°
2026-05-07 16:45 57.95910 5.29418 37125 ft 471 kts 88°
2026-05-07 16:45 57.96200 5.41724 37124 ft 470 kts 88°
2026-05-07 16:46 57.96478 5.54030 37122 ft 470 kts 89°
2026-05-07 16:46 57.96744 5.66322 37122 ft 470 kts 89°
2026-05-07 16:47 57.96998 5.78606 37125 ft 469 kts 89°
2026-05-07 16:47 57.97240 5.90894 37118 ft 469 kts 89°
2026-05-07 16:48 57.97467 6.02960 37122 ft 469 kts 89°
2026-05-07 16:48 57.97686 6.15254 37119 ft 469 kts 89°
2026-05-07 16:49 57.97892 6.27515 37123 ft 468 kts 89°
2026-05-07 16:49 57.98086 6.39778 37125 ft 468 kts 89°
2026-05-07 16:50 57.98269 6.51999 37126 ft 468 kts 89°
2026-05-07 16:50 57.98440 6.64294 37125 ft 467 kts 89°
2026-05-07 16:51 57.98599 6.76531 37118 ft 467 kts 89°
2026-05-07 16:51 57.98746 6.88762 37123 ft 466 kts 89°
2026-05-07 16:52 57.98879 7.00773 37122 ft 466 kts 89°
2026-05-07 16:52 57.99003 7.12997 37123 ft 466 kts 90°
2026-05-07 16:53 57.99114 7.25209 37122 ft 466 kts 90°
2026-05-07 16:53 57.99214 7.37418 37116 ft 466 kts 90°
2026-05-07 16:54 57.99303 7.49652 37129 ft 467 kts 90°
2026-05-07 16:54 57.99380 7.61901 37129 ft 468 kts 90°
2026-05-07 16:55 57.99445 7.74177 37125 ft 468 kts 90°
2026-05-07 16:55 57.99499 7.86448 37130 ft 469 kts 90°
2026-05-07 16:56 57.99540 7.98759 37122 ft 470 kts 90°
2026-05-07 16:56 57.99581 8.17061 37129 ft 470 kts 90°
2026-05-07 16:57 57.99593 8.29407 37129 ft 471 kts 90°
2026-05-07 16:57 57.99594 8.41744 37126 ft 471 kts 90°
2026-05-07 16:58 57.99582 8.54075 37125 ft 471 kts 90°
2026-05-07 16:58 57.99559 8.66421 37127 ft 470 kts 90°
2026-05-07 16:59 57.99524 8.78767 37127 ft 470 kts 91°
2026-05-07 16:59 57.99477 8.91084 37127 ft 469 kts 91°
2026-05-07 17:00 57.99420 9.03220 37128 ft 469 kts 91°
2026-05-07 17:00 57.99351 9.15504 37131 ft 468 kts 91°
2026-05-07 17:01 57.99271 9.27693 37121 ft 468 kts 91°
2026-05-07 17:01 57.99181 9.39948 37129 ft 467 kts 91°
2026-05-07 17:02 57.98969 9.52176 37128 ft 467 kts 94°
2026-05-07 17:02 57.98468 9.64384 37130 ft 467 kts 95°
2026-05-07 17:03 57.97933 9.76574 37131 ft 467 kts 95°
2026-05-07 17:03 57.97425 9.88783 37129 ft 467 kts 95°
2026-05-07 17:04 57.97012 9.98926 37133 ft 467 kts 95°
2026-05-07 17:04 57.96519 10.10982 37128 ft 468 kts 95°
2026-05-07 17:05 57.96007 10.23199 37128 ft 468 kts 95°
2026-05-07 17:05 57.95482 10.35427 37132 ft 469 kts 95°
2026-05-07 17:06 57.94947 10.47589 37128 ft 469 kts 95°
2026-05-07 17:06 57.94397 10.59823 37131 ft 469 kts 95°
2026-05-07 17:07 57.93835 10.72060 37131 ft 469 kts 95°
2026-05-07 17:07 57.93261 10.84290 37127 ft 469 kts 95°
2026-05-07 17:08 57.92675 10.96535 37127 ft 469 kts 96°
2026-05-07 17:08 57.92086 11.08597 37122 ft 469 kts 96°
2026-05-07 17:09 57.91481 11.20741 37129 ft 469 kts 96°
2026-05-07 17:09 57.90860 11.32954 37128 ft 468 kts 96°
2026-05-07 17:10 57.90229 11.45134 37129 ft 468 kts 96°
2026-05-07 17:10 57.89587 11.57319 37127 ft 468 kts 96°
2026-05-07 17:11 57.88933 11.69492 37127 ft 468 kts 96°
2026-05-07 17:11 57.88267 11.81667 37133 ft 468 kts 96°
2026-05-07 17:12 57.87590 11.93828 37130 ft 468 kts 96°
2026-05-07 17:12 57.86910 12.05821 37129 ft 468 kts 96°
2026-05-07 17:13 57.86210 12.17981 37125 ft 468 kts 97°
2026-05-07 17:13 57.85503 12.30051 37104 ft 468 kts 97°
2026-05-07 17:14 57.84779 12.42194 37108 ft 467 kts 97°
2026-05-07 17:14 57.84044 12.54329 37105 ft 468 kts 97°
2026-05-07 17:15 57.83298 12.66450 37107 ft 467 kts 97°
2026-05-07 17:15 57.82541 12.78573 37100 ft 467 kts 97°
2026-05-07 17:16 57.81771 12.90693 37102 ft 467 kts 97°
2026-05-07 17:16 57.81006 13.02562 37104 ft 468 kts 97°
2026-05-07 17:17 57.80215 13.14662 37100 ft 468 kts 97°
2026-05-07 17:17 57.79409 13.26802 37096 ft 469 kts 97°
2026-05-07 17:18 57.78590 13.38948 37098 ft 469 kts 98°
2026-05-07 17:18 57.77760 13.51083 37095 ft 470 kts 98°
2026-05-07 17:19 57.76918 13.63218 37098 ft 470 kts 98°
2026-05-07 17:19 57.76064 13.75363 37098 ft 470 kts 98°
2026-05-07 17:20 57.75203 13.87429 37094 ft 470 kts 98°
2026-05-07 17:20 57.74324 13.99581 37093 ft 470 kts 98°
2026-05-07 17:21 57.73456 14.11421 37068 ft 470 kts 98°
2026-05-07 17:21 57.72556 14.23531 37077 ft 470 kts 98°
2026-05-07 17:22 57.71644 14.35650 37080 ft 470 kts 98°
2026-05-07 17:22 57.70721 14.47746 37080 ft 469 kts 98°
2026-05-07 17:23 57.69788 14.59818 37086 ft 469 kts 98°
2026-05-07 17:23 57.68845 14.71872 37084 ft 469 kts 98°
2026-05-07 17:24 57.67890 14.83926 37088 ft 469 kts 99°
2026-05-07 17:24 57.66924 14.95963 37087 ft 469 kts 99°
2026-05-07 17:25 57.65963 15.07795 37087 ft 469 kts 99°
2026-05-07 17:25 57.64973 15.19830 37090 ft 469 kts 99°
2026-05-07 17:26 57.63974 15.31848 37089 ft 468 kts 99°
2026-05-07 17:26 57.62962 15.43864 37096 ft 468 kts 99°
2026-05-07 17:27 57.61939 15.55865 37095 ft 468 kts 99°
2026-05-07 17:27 57.60907 15.67834 37104 ft 467 kts 100°
2026-05-07 17:28 57.59864 15.79801 37101 ft 467 kts 100°
2026-05-07 17:28 57.58819 15.91651 37110 ft 466 kts 100°
2026-05-07 17:29 57.57768 16.03440 37114 ft 466 kts 100°
2026-05-07 17:29 57.56694 16.15357 37121 ft 466 kts 100°
2026-05-07 17:30 57.55617 16.27166 37124 ft 465 kts 101°
2026-05-07 17:30 57.54522 16.39052 37128 ft 465 kts 101°
2026-05-07 17:31 57.53417 16.50927 37124 ft 465 kts 101°
2026-05-07 17:31 57.52300 16.62792 37126 ft 466 kts 101°
2026-05-07 17:32 57.51164 16.74735 37130 ft 466 kts 101°
2026-05-07 17:32 57.50218 16.84578 37125 ft 466 kts 101°
2026-05-07 17:33 57.48875 16.98431 37133 ft 466 kts 102°
2026-05-07 17:33 57.47730 17.10099 37119 ft 466 kts 102°
2026-05-07 17:34 57.46558 17.21928 37132 ft 466 kts 102°
2026-05-07 17:34 57.45372 17.33768 37122 ft 466 kts 102°
2026-05-07 17:35 57.44175 17.45607 37123 ft 466 kts 102°
2026-05-07 17:35 57.42974 17.57373 37123 ft 467 kts 102°
2026-05-07 17:36 57.41753 17.69210 37120 ft 467 kts 102°
2026-05-07 17:36 57.40521 17.81050 37124 ft 467 kts 102°
2026-05-07 17:37 57.39268 17.92970 37121 ft 467 kts 102°
2026-05-07 17:37 57.38035 18.04584 37126 ft 467 kts 103°
2026-05-07 17:38 57.36770 18.16393 37123 ft 467 kts 103°
2026-05-07 17:38 57.35503 18.28117 37121 ft 467 kts 103°
2026-05-07 17:39 57.34213 18.39938 37125 ft 467 kts 103°
2026-05-07 17:39 57.32914 18.51728 37129 ft 467 kts 103°
2026-05-07 17:40 57.31603 18.63519 37126 ft 468 kts 103°
2026-05-07 17:40 57.30273 18.75379 37126 ft 468 kts 103°
2026-05-07 17:41 57.28941 18.87150 37122 ft 467 kts 104°
2026-05-07 17:41 57.27596 18.98928 37129 ft 467 kts 104°
2026-05-07 17:42 57.26262 19.10504 37129 ft 468 kts 104°
2026-05-07 17:42 57.24897 19.22256 37129 ft 468 kts 104°
2026-05-07 17:43 57.23520 19.34001 37128 ft 468 kts 104°
2026-05-07 17:43 57.22368 19.43755 37119 ft 468 kts 105°
2026-05-07 17:44 57.20971 19.55491 37130 ft 468 kts 105°
2026-05-07 17:44 57.19563 19.67226 37125 ft 469 kts 105°
2026-05-07 17:45 57.18145 19.78971 37122 ft 469 kts 105°
2026-05-07 17:45 57.17421 19.84908 36561 ft 478 kts 105°
2026-05-07 17:45 57.16696 19.90875 36077 ft 476 kts 104°
2026-05-07 17:46 57.16205 19.96932 35462 ft 479 kts 97°
2026-05-07 17:46 57.15991 20.02859 34921 ft 479 kts 95°
2026-05-07 17:46 57.15824 20.08989 34322 ft 479 kts 95°
2026-05-07 17:46 57.15659 20.15139 33595 ft 481 kts 95°
2026-05-07 17:47 57.15475 20.21286 32905 ft 481 kts 95°
2026-05-07 17:47 57.15271 20.27430 32259 ft 480 kts 96°
2026-05-07 17:47 57.15054 20.33502 31592 ft 480 kts 96°
2026-05-07 17:47 57.14825 20.39685 31120 ft 475 kts 96°
2026-05-07 17:48 57.14598 20.45747 30636 ft 471 kts 96°
2026-05-07 17:48 57.14372 20.51744 30159 ft 468 kts 96°
2026-05-07 17:48 57.14145 20.57688 29599 ft 464 kts 97°
2026-05-07 17:48 57.13916 20.63572 29131 ft 458 kts 97°
2026-05-07 17:49 57.13685 20.69390 28660 ft 454 kts 97°
2026-05-07 17:49 57.13453 20.75164 28184 ft 449 kts 97°
2026-05-07 17:49 57.13221 20.80888 27708 ft 445 kts 97°
2026-05-07 17:49 57.12991 20.86514 27242 ft 442 kts 97°
2026-05-07 17:50 57.12761 20.92125 26790 ft 438 kts 97°
2026-05-07 17:50 57.12527 20.97769 26328 ft 435 kts 97°
2026-05-07 17:50 57.12303 21.03109 25893 ft 432 kts 97°
2026-05-07 17:50 57.12073 21.08558 25447 ft 429 kts 97°
2026-05-07 17:51 57.11840 21.14013 25010 ft 427 kts 97°
2026-05-07 17:51 57.11602 21.19518 24549 ft 424 kts 97°
2026-05-07 17:51 57.11366 21.24919 24126 ft 422 kts 97°
2026-05-07 17:51 57.11134 21.30205 23700 ft 420 kts 97°
2026-05-07 17:52 57.10896 21.35544 23191 ft 417 kts 97°
2026-05-07 17:52 57.10659 21.40844 22719 ft 414 kts 97°
2026-05-07 17:52 57.10421 21.46106 22288 ft 411 kts 97°
2026-05-07 17:52 57.10183 21.51319 21850 ft 407 kts 97°
2026-05-07 17:53 57.09941 21.56556 21402 ft 404 kts 97°
2026-05-07 17:53 57.09702 21.61701 20972 ft 402 kts 97°
2026-05-07 17:53 57.09463 21.66791 20544 ft 399 kts 97°
2026-05-07 17:53 57.09223 21.71856 20123 ft 396 kts 97°
2026-05-07 17:54 57.08982 21.76904 19677 ft 394 kts 97°
2026-05-07 17:54 57.08741 21.81912 19271 ft 392 kts 97°
2026-05-07 17:54 57.08499 21.86898 18863 ft 390 kts 97°
2026-05-07 17:54 57.08257 21.91841 18455 ft 388 kts 97°
2026-05-07 17:55 57.08014 21.96768 17998 ft 386 kts 97°
2026-05-07 17:55 57.07779 22.01493 17556 ft 384 kts 97°
2026-05-07 17:55 57.07536 22.06358 17140 ft 381 kts 96°
2026-05-07 17:55 57.07292 22.11196 16717 ft 378 kts 96°
2026-05-07 17:56 57.07050 22.15997 16302 ft 376 kts 96°
2026-05-07 17:56 57.06808 22.20754 15896 ft 373 kts 96°
2026-05-07 17:56 57.06564 22.25483 15489 ft 370 kts 96°
2026-05-07 17:56 57.06318 22.30180 15083 ft 368 kts 96°
2026-05-07 17:57 57.06047 22.34833 14734 ft 364 kts 97°
2026-05-07 17:57 57.05847 22.37887 14499 ft 362 kts 98°
2026-05-07 17:57 57.05438 22.43994 14045 ft 358 kts 97°
2026-05-07 17:57 57.05128 22.48529 13694 ft 356 kts 99°
2026-05-07 17:58 57.04458 22.52868 13397 ft 352 kts 112°
2026-05-07 17:58 57.03523 22.57001 13151 ft 349 kts 113°
2026-05-07 17:58 57.02584 22.61099 12889 ft 347 kts 113°
2026-05-07 17:58 57.01655 22.65158 12619 ft 344 kts 113°
2026-05-07 17:59 57.00734 22.69202 12361 ft 343 kts 112°
2026-05-07 17:59 56.99827 22.73201 12113 ft 344 kts 112°
2026-05-07 17:59 56.98911 22.77255 11856 ft 344 kts 112°
2026-05-07 17:59 56.97990 22.81332 11639 ft 339 kts 112°
2026-05-07 18:00 56.97106 22.85247 11329 ft 335 kts 112°
2026-05-07 18:00 56.96217 22.89177 10960 ft 332 kts 111°
2026-05-07 18:00 56.95333 22.93085 10588 ft 331 kts 112°
2026-05-07 18:00 56.94451 22.96977 10413 ft 322 kts 112°
2026-05-07 18:01 56.93628 23.00600 10267 ft 314 kts 112°
2026-05-07 18:01 56.92809 23.04203 10139 ft 306 kts 112°
2026-05-07 18:01 56.92000 23.07755 9991 ft 298 kts 112°
2026-05-07 18:01 56.91201 23.11257 9657 ft 297 kts 111°
2026-05-07 18:02 56.89616 23.18186 9053 ft 293 kts 111°
2026-05-07 18:02 56.88832 23.21608 8757 ft 291 kts 111°
2026-05-07 18:02 56.88050 23.25013 8456 ft 289 kts 111°
2026-05-07 18:03 56.87276 23.28379 8166 ft 287 kts 111°
2026-05-07 18:03 56.86501 23.31743 7871 ft 286 kts 111°
2026-05-07 18:03 56.85730 23.35087 7571 ft 284 kts 110°
2026-05-07 18:03 56.84963 23.38404 7277 ft 282 kts 111°
2026-05-07 18:04 56.84203 23.41689 6992 ft 281 kts 110°
2026-05-07 18:04 56.83441 23.44977 6683 ft 280 kts 110°
2026-05-07 18:04 56.82682 23.48245 6399 ft 279 kts 110°
2026-05-07 18:04 56.81927 23.51492 6098 ft 277 kts 110°
2026-05-07 18:05 56.81175 23.54723 5787 ft 275 kts 110°
2026-05-07 18:05 56.80429 23.57921 5498 ft 274 kts 110°
2026-05-07 18:05 56.79684 23.61111 5220 ft 272 kts 110°
2026-05-07 18:05 56.78942 23.64283 4951 ft 271 kts 109°
2026-05-07 18:06 56.78204 23.67436 4656 ft 270 kts 109°
2026-05-07 18:06 56.77470 23.70566 4363 ft 267 kts 109°
2026-05-07 18:06 56.76749 23.73637 4231 ft 259 kts 109°
2026-05-07 18:06 56.76052 23.76600 4104 ft 251 kts 109°
2026-05-07 18:07 56.75376 23.79470 3996 ft 242 kts 109°
2026-05-07 18:07 56.74721 23.82245 3899 ft 234 kts 109°
2026-05-07 18:07 56.74087 23.84925 3792 ft 226 kts 109°
2026-05-07 18:07 56.73478 23.87495 3723 ft 215 kts 109°
2026-05-07 18:08 56.73009 23.90006 3463 ft 204 kts 89°
2026-05-07 18:08 56.73420 23.92235 3413 ft 177 kts 42°
2026-05-07 18:08 56.74467 23.93171 3306 ft 165 kts 19°
2026-05-07 18:08 56.75554 23.93765 3074 ft 160 kts 15°
2026-05-07 18:09 56.76631 23.94203 2859 ft 158 kts 14°
2026-05-07 18:09 56.77707 23.94589 2644 ft 158 kts 11°
2026-05-07 18:09 56.78799 23.94850 2432 ft 159 kts
2026-05-07 18:09 56.79886 23.95051 2214 ft 159 kts
2026-05-07 18:10 56.80983 23.95237 1992 ft 157 kts
2026-05-07 18:10 56.82061 23.95415 1775 ft 154 kts
2026-05-07 18:10 56.83118 23.95590 1557 ft 152 kts
2026-05-07 18:10 56.84166 23.95764 1345 ft 148 kts
2026-05-07 18:11 56.85178 23.95931 1183 ft 142 kts
2026-05-07 18:11 56.85828 23.96039 1015 ft 140 kts
2026-05-07 18:11 56.87117 23.96252 750 ft 138 kts
2026-05-07 18:11 56.88084 23.96413 567 ft 141 kts
2026-05-07 18:12 56.89068 23.96568 394 ft 143 kts
2026-05-07 18:12 56.90060 23.96739 201 ft 143 kts
2026-05-07 18:12 56.91042 23.96898 45 ft 137 kts
2026-05-07 18:12 56.91854 23.97028 43 ft 95 kts
2026-05-07 18:13 56.92302 23.97111 44 ft 41 kts 11°
2026-05-07 18:13 56.92460 23.97245 43 ft 20 kts 35°
2026-05-07 18:13 56.92566 23.97382 42 ft 15 kts 36°
2026-05-07 18:13 56.92613 23.97477 43 ft 9 kts 78°
2026-05-07 18:14 56.92579 23.97542 43 ft 8 kts 178°
2026-05-07 18:14 56.92522 23.97535 43 ft 8 kts 184°
2026-05-07 18:14 56.92466 23.97526 40 ft 8 kts 185°
2026-05-07 18:14 56.92413 23.97527 42 ft 7 kts 157°
2026-05-07 18:15 56.92393 23.97609 42 ft 7 kts 96°
2026-05-07 18:15 56.92404 23.97635 43 ft 1 kts 64°
2026-05-07 18:15 56.92396 23.97673 43 ft 6 kts 112°
2026-05-07 18:15 56.92395 23.97713 42 ft 1 kts 21°
2026-05-07 18:16 56.92410 23.97699 43 ft 5 kts 335°
2026-05-07 18:16 56.92439 23.97688 43 ft 3 kts
2026-05-07 18:16 56.92444 23.97689 43 ft 0 kts